Погода в Покосном

Россия / Иркутская область     55°31′19″N   101°03′00″E
темп.,
°C
ветер,
м/с
пор.,
м/с
влажн.,
%
обл.,
%
осадки,
мм/ч
давл.,
гПа
погр.,
м
14 июня, пн
пн1423:00+11юз2369100 0.0 100844
02:00+11зюз2363100 0.0 100857
05:00+9з2576100 0.0 100898
08:00+12з4871100 0.0 1008731
11:00+12з71176100 0.9 10081196
14:00+10зюз5991100 2.0 1009719
17:00+12сз6870100 0.4 10101238
20:00+9сз6968100 0.4 1013962
15 июня, вт
вт1523:00+5зсз368267 0.0 1015220
02:00+5зсз268986 0.0 1016250
05:00+5з378721 0.0 1015235
08:00+9зсз4674100 0.3 1015752
11:00+7сз5789100 1.0 10161023
14:00+7сз4788100 1.2 1016985
17:00+8сз3687100 0.1 1016877
20:00+9ссз2476100 0.1 1016804
16 июня, ср
ср1623:00+6зсз1189100 0.0 101610
02:00+6зсз119137 0.0 101610
05:00+4с11957 0.0 101610
08:00+10зсз35735 0.0 1016423
11:00+16ссз33475 0.0 10141307
14:00+19сз343728 0.0 10132179
17:00+20сз553379 0.0 10122463
20:00+18с1152100 0.0 101215
17 июня, чт
чт1723:00+13юв2262100 0.0 101316
02:00+10ююз2271100 0.0 101322
05:00+9ююз227290 0.0 101312
08:00+13ю2362100 0.0 1013229
11:00+14юз3564100 0.1 1012338
14:00+11ююв4992100 4.0 1011571
17:00+12ю2697100 5.1 1009353
20:00+12ююв1198100 7.1 100853
18 июня, пт
пт1823:00+12в0098100 0.3 100711
02:00+11ссв2298100 0.4 100746
05:00+10ссв2399100 0.0 100676
08:00+12ссв2394100 0.0 1006280
11:00+15всв338046 0.0 1006613
14:00+20всв235182 0.0 10041456
17:00+20всв334797 0.0 10031460
20:00+17всв3561100 0.0 1003119